Location: Newark
(28.9833°N, 10.0667°W)
Time: 15:25:03
(UTC+00:00)

LightSail 2 - Visible Passes

Search period start: 08 December 2019 00:00
Search period end: 18 December 2019 00:00
Orbit: 696 x 730 km, 24.0° (Epoch: 07 December)

Date Brightness Start Highest point End Pass type
(mag) Time Alt. Az. Time Alt. Az. Time Alt. Az.
08 Dec 6.6 19:40:00 10° WSW 19:44:27 30° SSW 19:45:50 26° SSE visible
09 Dec 6.5 18:41:44 10° WSW 18:46:28 36° SSW 18:51:08 10° SE visible
09 Dec 7.6 20:28:21 10° WSW 20:30:43 16° SSW 20:30:43 16° SSW visible
10 Dec 7.2 19:29:41 10° WSW 19:33:33 21° SSW 19:36:43 13° SSE visible
11 Dec 7.0 18:31:14 10° WSW 18:35:34 27° SSW 18:39:53 10° SE visible
12 Dec 7.7 19:19:56 10° SW 19:22:35 14° SSW 19:25:14 10° S visible
13 Dec 7.7 18:21:00 10° WSW 18:24:35 19° SSW 18:28:10 10° SSE visible
15 Dec 8.0 18:11:40 10° SW 18:13:33 12° SSW 18:15:25 10° S visible
